Location: Unspecified
(0.0000°N, 0.0000°E)
Time: 13:59:31
(UTC+00:00)

FREGAT R/B - Visible Passes

Search period start: 13 November 2025 00:00
Search period end: 23 November 2025 00:00
Orbit: 18980 x 19033 km, 64.8° (Epoch: 09 November)

Date Brightness Start Highest point End Pass type
(mag) Time Alt. Az. Time Alt. Az. Time Alt. Az.
15 Nov ? 04:35:49 10° NNW 06:49:48 70° W 09:26:00 10° S visible
16 Nov ? 02:42:05 10° NNW 05:13:42 79° E 07:32:57 10° SSE visible
16 Nov ? 21:10:08 10° WSW 21:49:10 12° W 05:35:14 10° SSE visible
17 Nov ? 18:28:54 10° SSW 20:16:30 39° W 03:19:05 10° SE visible
18 Nov ? 16:27:49 10° SSW 18:41:07 68° W 21:18:49 10° N visible
19 Nov ? 14:33:53 10° SSW 17:05:09 80° E 19:25:53 10° NNE visible
22 Nov ? 04:20:51 10° NNW 06:32:25 66° W 09:10:37 10° S visible
